Weather in Anyang

South Korea     37°23′13″N   126°55′28″E
temp.,
°C
wind,
m/s
gust,
m/s
humid.,
%
clouds,
%
prec.,
mm/h
press.,
hPa
HPBL,
m
2 july, sat
sat200:00+25e0083100 0.0 101520
03:00+24ne1187100 0.0 101414
06:00+24e118895 0.0 101453
09:00+28e226864 0.0 1014542
12:00+32sw1350100 0.0 10131578
15:00+34sw33415 0.0 10111890
18:00+32wsw32502 0.0 1010891
21:00+28wnw12670 0.0 1011172
3 july, sun
sun300:00+26w11740 0.0 101124
03:00+25nw11794 0.0 101119
06:00+25ese11821 0.0 101035
09:00+29n116287 0.0 1010624
12:00+33wsw014743 0.0 10091237
15:00+34w433820 0.0 10072188
18:00+31w444799 0.0 1007746
21:00+28w1358100 0.0 1008206
4 july, mon
mon400:00+27wsw2364100 0.0 1008197
03:00+25sw126794 0.0 1008133
06:00+25sw117097 0.0 100893
09:00+28nw005514 0.0 1008628
12:00+32wnw114666 0.0 10071385
15:00+34nw224279 0.0 10052077
18:00+31w3453100 0.0 1005828
21:00+28w2366100 0.0 1006383
5 july, tue
tue500:00+27ssw1170100 0.0 1006138
03:00+26s1173100 0.1 100775
06:00+26sse1176100 0.0 1007106
09:00+28e1268100 0.0 1007652
12:00+31se335596 0.0 10061220
15:00+33se225197 0.1 10041748
18:00+29s117313 3.3 1005165
21:00+27se118397 5.6 100638
6 july, wed
wed600:00+26ese128794 0.5 100667
03:00+25ese1189100 0.9 100646
06:00+25se1290100 0.3 1007110
09:00+26ese2584100 1.2 1008374
12:00+28se1278100 1.8 1007503
15:00+30ssw1270100 4.9 1007907
18:00+29ese1172100 2.6 1006194
21:00+26s1185100 6.6 100716